Tracking 25620 objects as of 18-May-2022
HD Live streaming from Space Station
objects crossing your sky now

COSMOS 2251 DEB

Track COSMOS 2251 DEB now!
10-day predictions


NORAD ID: 34614
Int'l Code: 1993-036WK
Perigee: 745.8 km
Apogee: 1,132.0 km
Inclination: 73.9 °
Period: 103.7 minutes
Semi major axis: 7309 km
RCS: 0.0176 m2 (small)
Launch date: June 16, 1993
Source: Commonwealth of Independent States (former USSR) (CIS)
Launch site: PLESETSK MISSILE AND SPACE COMPLEX (PKMTR)

Note: This is SATELLITE DEBRIS
aabbcc
Your satellite tracking list
Your tracking list is empty




NASA's NSSDC Master Catalog

Two Line Element Set (TLE):
1 34614U 93036WK  22137.35191859  .00007208  00000-0  45020-2 0  9995
2 34614  73.8909 108.8136 0264176 355.3150 153.0811 13.89105156664892
Source of the keplerian elements: AFSPC